Location: Cold Norton
(51.6667°N, 0.6667°E)
Time: 17:44:26
(UTC+00:00)

Cosmos 1300 Rocket - Pass Details

Date: 18 November 2025
Orbit: 594 x 620 km, 82.5° (Epoch: 10 December)

Event Time Altitude Azimuth Distance (km) Brightness Sun altitude
Rises 17:27:16 0° 204° (SSW) 2,881 7.6 -12.8°
Reaches altitude 10° 17:29:33 10° 209° (SSW) 1,977 6.8 -13.1°
Maximum altitude 17:33:48 50° 285° (WNW) 792 4.5 -13.8°
Drops below altitude 10° 17:38:04 10° 2° (N) 1,978 6.0 -14.4°
Sets 17:40:21 0° 7° (N) 2,883 6.8 -14.8°
